Regional Weather Roundup
Issued by NWS

Home | Current Version | Previous Version | Text Only | Print | Product List | Glossary On
Versions: 1 2 3 4 5 6 7 8 9 10 11 12 13 14 15 16 17 18 19 20 21 22 23 24 25 26 27 28 29 30 31 32 33 34 35 36 37 38 39 40 41 42 43 44 45 46 47 48 49 50
000
ASUS45 KBOU 300707
RWRCO

WEATHER ROUNDUP FOR COLORADO
NATIONAL WEATHER SERVICE DENVER/BOULDER CO
100 AM MDT MON MAR 30 2015

NOTE: "FAIR" INDICATES FEW OR NO CLOUDS BELOW 12000 FEET WITH NO
SIGNIFICANT WEATHER AND/OR OBSTRUCTIONS TO VISIBILITY.

COZ001>005-013-030-031-300800-
...NORTHWEST COLORADO...

CITY           SKY/WX    TMP DP  RH WIND       PRES   REMARKS
CRAIG          CLEAR     31  22  69 NE3       30.25R
HAYDEN         CLEAR     37  18  44 SE7       30.25R
MEEKER         CLEAR     35  21  56 CALM      30.26S
MOUNT WERNER   NOT AVBL
STEAMBOAT SPGS CLEAR     36  21  55 CALM      30.26S
WALDEN         PTCLDY    32  16  51 E6        30.28R WCI  26
$$

COZ006>008-011-300800-
...WEST CENTRAL VALLEYS...

CITY           SKY/WX    TMP DP  RH WIND       PRES   REMARKS
GRAND JUNCTION CLEAR     41  12  30 E6        30.15S
MONTROSE       CLEAR     49  16  26 SE12      30.23S
EAGLE          CLEAR     37  16  41 CALM      30.29S
RIFLE          CLEAR     44  15  31 CALM      30.22R
DELTA          CLEAR     43  11  28 E6        30.21R
NUCLA          CLEAR     41  10  28 E12       30.27R
$$

COZ017>023-064>068-300800-
...SOUTHWEST COLORADO...

CITY           SKY/WX    TMP DP  RH WIND       PRES   REMARKS
DURANGO        PTCLDY    41  16  36 CALM      30.25S
CORTEZ         CLEAR     37  16  42 NE7       30.24R
PAGOSA SPRINGS PTCLDY    39  21  48 CALM      30.31S
TELLURIDE      NOT AVBL
WOLF CREEK PAS PTCLDY    32   9  37 SW5       30.51S WCI  27
$$

COZ009-010-012-014-032>034-037-058>063-300800-
...CENTRAL COLORADO...

CITY           SKY/WX    TMP DP  RH WIND       PRES   REMARKS
ASPEN          PTCLDY    35  17  47 S8        30.31S WCI  29
BUENA VISTA    PTCLDY    31  20  64 W5        30.33S WCI  26
COPPER MTN     CLEAR     36   1  23 SW14      30.46S
BERTHOUD PASS  FAIR      28  21  74 NW26G35   30.44F WCI  13
COTTONWOOD PAS PTCLDY    45   5  19 CALM      30.38S
GUNNISON       CLEAR     30  16  55 SE3       30.35S
KREMMLING      CLEAR     30  19  64 CALM      30.31R
LEADVILLE      CLEAR     30   5  34 NE6       30.37S WCI  24
SALIDA         PTCLDY    39  18  43 W7        30.39S
SUNLIGHT       CLEAR     39   7  26 CALM      30.45F
WILKERSON PASS CLEAR     36   1  23 W9G16     30.44F
$$

COZ069>075-300800-
...SAN LUIS VALLEY/SANGRE DE CRISTO MOUNTAINS...

CITY           SKY/WX    TMP DP  RH WIND       PRES   REMARKS
ALAMOSA        PTCLDY    42  26  53 SE10      30.27F
LA VETA PASS   PTCLDY    37  25  60 S8        30.39S
SAGUACHE       PTCLDY    41   9  26 NW10      30.31S
$$

COZ035-036-038>040-300800-
...NORTHERN COLORADO FRONT RANGE...

CITY           SKY/WX    TMP DP  RH WIND       PRES   REMARKS
DENVER INTL AP PTCLDY    48  25  40 SW10      30.15F
DMNS CITY PARK   N/A     45  28  50 SE3       30.14F
AURORA         NOT AVBL
FRONT RANGE AP CLEAR     50  28  43 SW8       30.16F
ERIE MUNI ARPT CLEAR     38  29  70 CALM      30.15S
BOULDER MUN AP CLEAR     45  27  49 S3        30.14F
CENTENNIAL     PTCLDY    47  24  40 SE7       30.16F
BROOMFIELD     CLEAR     46  27  46 W5        30.17S
FORT COLLINS   CLEAR     41  25  52 N8        30.15F
LONGMONT       CLEAR     42  29  60 SW3       30.16S
$$

COZ041-046-047-076>085-087-088-300800-
...PIKES PEAK/PALMER DIVIDE AND SOUTHERN FOOTHILLS...

CITY           SKY/WX    TMP DP  RH WIND       PRES   REMARKS
COLO. SPRINGS  CLEAR     44  21  40 E6        30.24F
A. F. ACADEMY  NOT AVBL
ELLICOTT       CLEAR    N/A N/A N/A SE10      30.23S
FALCON         CLEAR     39  19  45 SW5       30.27S
FORT CARSON    NOT AVBL
LIMON          CLEAR     41  22  46 S13       30.20F
MONUMENT HILL  CLEAR     37  21  52 S14       30.23S
TRINIDAD       PTCLDY    53  30  41 N9        30.20F
$$

COZ042>045-048>051-090-091-300800-
...NORTHEAST COLORADO...

CITY           SKY/WX    TMP DP  RH WIND       PRES   REMARKS
GREELEY ARPT   CLEAR     34  18  51 N5        30.12S WCI  30
AKRON          CLEAR     46  22  38 S12       30.14F
BURLINGTON     CLEAR     40  22  48 S13       30.18F
WRAY           CLEAR     42  21  43 SW5       30.15F
STERLING       CLEAR     39  27  60 SW10      30.11F
HOLYOKE        NOT AVBL
FORT MORGAN    CLEAR    N/A N/A N/A E5        30.15S
$$

COZ086-089-092>099-300800-
...SOUTHEAST COLORADO...

CITY           SKY/WX    TMP DP  RH WIND       PRES   REMARKS
PUEBLO         CLEAR     45  22  40 N9        30.18F
LA JUNTA       CLEAR     53  22  29 SE14      30.16F
LAMAR          CLEAR     48  25  40 S9        30.18S
SPRINGFIELD      N/A     42  26  53 S12       30.21F
$$



USA.gov is the U.S. government's official web portal to all federal, state and local government web resources and services.